This demonstration page uses our WeatherBlox Daily Observations layout. Learn more.

Left ArrowRight Arrow

39.92423, -83.80882

Hourly Observations for May 12, 2021

Temp ( °F °C ) Dew Point ( °F °C ) Humidity (%) Winds ( mph kmh ) Pressure ( in mb ) Visibility ( mi km ) Precip ( " mm )
12:56 am 00:56 Clear 40 4.4 37 2.8 89 89 N 5 7 30.36 1028 10 16 N/A
1:56 am 01:56 Clear 39 3.9 36 2.2 89 89 N 3 6 30.35 1028 10 16 N/A
2:56 am 02:56 Clear 38 3.3 35 1.7 89 89 N 6 9 30.35 1028 10 16 N/A
3:56 am 03:56 Clear 37 2.8 33 0.6 86 86 N 7 11 30.35 1028 10 16 N/A
4:56 am 04:56 Clear 37 2.8 33 0.6 86 86 N 7 11 30.36 1028 10 16 N/A
5:56 am 05:56 Clear 36 2.2 34 1.1 93 93 N 6 9 30.38 1029 10 16 N/A
6:56 am 06:56 Sunny 38 3.3 35 1.7 89 89 NNE 6 9 30.40 1030 10 16 N/A
7:56 am 07:56 Sunny 43 6.1 36 2.2 76 76 NNE 6 9 30.41 1030 10 16 N/A
8:56 am 08:56 Sunny 48 8.9 36 2.2 63 63 NNE 7 11 30.42 1030 10 16 N/A
9:56 am 09:56 Sunny 52 11.1 33 0.6 49 49 NE 14 22 30.42 1030 10 16 N/A
10:56 am 10:56 Sunny 55 12.8 32 undefined 42 42 ENE 14 22 30.41 1030 10 16 N/A
11:28 am 11:28 Sunny 55 13 34 1 44 44 NE 8 13 30.39 1029 10 16 N/A
11:56 am 11:56 Sunny 57 13.9 35 1.7 44 44 NE 14 22 30.40 1030 10 16 N/A
12:56 pm 12:56 Mostly Sunny 58 14.4 35 1.7 42 42 NE 13 20 30.40 1029 10 16 N/A
1:56 pm 13:56 Partly Cloudy 59 15 35 1.7 41 41 NNE 15 24 30.38 1029 10 16 N/A
2:56 pm 14:56 Partly Cloudy 61 16.1 37 2.8 41 41 NNE 15 24 30.37 1029 10 16 N/A
3:56 pm 15:56 Partly Cloudy 58 14.4 34 1.1 41 41 NNE 14 22 30.37 1028 10 16 N/A
4:56 pm 16:56 Mostly Sunny 61 16.1 37 2.8 41 41 NE 16 26 30.35 1028 10 16 N/A
5:56 pm 17:56 Mostly Cloudy 58 14.4 35 1.7 42 42 NE 15 24 30.35 1028 10 16 N/A
6:56 pm 18:56 Partly Cloudy 59 15 34 1.1 39 39 N 12 19 30.34 1028 10 16 N/A
7:15 pm 19:15 Partly Cloudy 57 14 34 1 41 41 NE 15 24 30.33 1027 10 16 N/A
7:56 pm 19:56 Sunny 56 13.3 34 1.1 44 44 NE 14 22 30.34 1028 10 16 N/A
8:56 pm 20:56 Clear 51 10.6 35 1.7 54 54 NNE 9 15 30.36 1028 10 16 N/A
9:56 pm 21:56 Clear 49 9.4 35 1.7 59 59 NNE 7 11 30.37 1029 10 16 N/A
10:56 pm 22:56 Clear 47 8.3 34 1.1 61 61 NNE 7 11 30.39 1029 10 16 N/A
11:56 pm 23:56 Clear 44 6.7 34 1.1 68 68 N 3 6 30.38 1029 10 16 N/A

Powered by AerisWeather